Regional Weather Roundup
Issued by NWS Sterling, VA

Home | Current Version | Previous Version | Text Only | Print | Product List | Glossary On
Versions: 1 2 3 4 5 6 7 8 9 10 11 12 13 14 15 16 17 18 19 20 21 22 23 24 25 26 27 28 29 30 31 32 33 34 35 36 37 38 39 40 41 42 43 44 45 46 47 48 49 50
000
ASUS41 KLWX 061210
RWRLWX

REGIONAL WEATHER ROUNDUP
NATIONAL WEATHER SERVICE BALTIMORE MD/WASHINGTON DC
800 AM EDT MON JUL 06 2015

Note: "FAIR" indicates few or no clouds below 12,000 feet
with no significant weather and/or obstructions to visibility.
 TC=TEMPERATURE CELSIUS

 * =Non NWS site. Station does not report precipitation (e.g. rain,
    snow, etc.), thunder, or fog.

DCZ001-MDZ009-015-VAZ040>042-051-053>054-061300-
WASHINGTON METRO

CITY           SKY/WX    TMP DP  RH WIND       PRES   REMARKS
WASHINGTON NAT CLOUDY    79  73  83 SE5       30.12R
DULLES         PTSUNNY   75  72  88 S6        30.12R
ANDREWS AFB    CLOUDY    74  74 100 SE5       30.11S
FT BELVOIR     PTSUNNY   74  73  95 SE3       30.12R
QUANTICO       PTSUNNY   77  71  82 S10       30.12S
COLLEGE PARK*  CLOUDY    73  73 100 CALM      30.12R
LEESBURG*      CLOUDY    73  73 100 S7        30.13S FOG
MANASSAS*      CLOUDY    73  73 100 S5        30.12S
GAITHERSBURG*  CLOUDY    73  70  88 SE9       30.16S

$$

MDZ006>007-011-014-061300-
BALTIMORE METRO

CITY           SKY/WX    TMP DP  RH WIND       PRES   REMARKS
BWI AIRPORT    CLOUDY    74  71  91 SE3       30.12R
MD SCIENCE CTR   N/A     76  72  87 MISG      30.13R
MARTIN STATE   CLOUDY    75  73  94 CALM      30.13F
ANNAPOLIS      CLOUDY    75  71  87 SE8       30.12R
FORT MEADE*    CLOUDY    72  70  94 CALM      30.14S

$$

MDZ012-015-019>023-061300-
MARYLAND EASTERN SHORE

CITY           SKY/WX    TMP DP  RH WIND       PRES   REMARKS
OCEAN CITY     PTSUNNY   77  74  90 VRB5      30.13R
SALISBURY      PTSUNNY   73  71  93 SE5       30.12S
BAY BRIDGE AP*   N/A     73  72  94 SE6       30.12S
CAMBRIDGE*     PTSUNNY   77  72  83 S5        30.11F
EASTON*        MOSUNNY   73  73 100 S3        30.16S

$$

MDZ017>025-061300-
SOUTHERN MARYLAND

CITY           SKY/WX    TMP DP  RH WIND       PRES   REMARKS
PATUXENT RIVER PTSUNNY   77  73  87 S6        30.11S
ST INIGOES     NOT AVBL
LEONARDTOWN*   PTSUNNY   75  72  88 S3        30.14R

$$

MDZ003>005-061300-
NORTH CENTRAL MARYLAND

CITY           SKY/WX    TMP DP  RH WIND       PRES   REMARKS
FREDERICK*     PTSUNNY   75  73  94 CALM      30.15R FOG
HAGERSTOWN APT CLOUDY    73  69  87 E5        30.13R FOG
WESTMINSTER*   PTSUNNY   72  72 100 CALM      30.15R FOG

$$

MDZ501>502-061300-
WESTERN MARYLAND

CITY           SKY/WX    TMP DP  RH WIND       PRES   REMARKS
OAKLAND*       FOG       63 N/A N/A SE10      30.18S VSB<1/4
CUMBERLAND*    CLOUDY    72  68  88 CALM      30.16R

$$

VAZ025>031-061300-
SHENANDOAH VALLEY

CITY           SKY/WX    TMP DP  RH WIND       PRES   REMARKS
WINCHESTER*    CLOUDY    73  72  94 SE5       30.13R
FRONT ROYAL*   CLOUDY    70  70 100 CALM      30.11S
LURAY*         CLOUDY    72  72 100 CALM      30.13R FOG
NEW MARKET*    CLOUDY    70  69  97 NE5       30.11R
STAUNTON*      CLOUDY    73  70  92 SE3       30.16R
WAYNESBORO*    CLOUDY    67  67 100 SE6       30.14R

$$

WVZ021-048>050-054>055-061300-
EASTERN WEST VIRGINIA PANHANDLE

CITY           SKY/WX    TMP DP  RH WIND       PRES   REMARKS
MARTINSBURG    CLOUDY    73  70  90 CALM      30.13R FOG
PETERSBURG*    CLOUDY    71  69  92 CALM      30.13R FOG

$$

VAZ036>039-050-061300-
CENTRAL FOOTHILLS

CITY           SKY/WX    TMP DP  RH WIND       PRES   REMARKS
CHARLOTTESVILL CLOUDY    71  69  93 SE3       30.13R
CULPEPER*      CLOUDY    72  71  99 S3        30.13R FOG
ORANGE*        CLOUDY    72  70  94 CALM      30.14R
GORDONSVILLE*  CLOUDY    72  70  94 CALM      30.12R
WARRENTON*     PTSUNNY   74  73  98 CALM      30.12R

$$

VAZ055>057-061300-
NORTH AND CENTRAL PIEDMONT

CITY           SKY/WX    TMP DP  RH WIND       PRES   REMARKS
FREDERICKSBRG* CLOUDY    76  76  99 S3        30.11S
STAFFORD*      CLOUDY    73  71  92 S5        30.16R

$$

NCZ024-NYZ072-PAZ021-071-VAZ022-071-061300-
OTHER REGIONAL OBSERVATIONS

CITY           SKY/WX    TMP DP  RH WIND       PRES   REMARKS
NEW YORK CITY  MOSUNNY   75  67  76 CALM      30.19R
PHILADELPHIA   CLOUDY    74  69  85 E6        30.14S
PITTSBURGH     CLOUDY    72  68  87 E6        30.10R
ROANOKE        HVY RAIN  69  69 100 E6        30.14R VSB 3/4
RICHMOND       CLOUDY    73  70  90 SE7       30.12S
RALEIGH        PTSUNNY   74  71  91 S6        30.12S

$$

ANZ530>537-061300-
MARINE OBSERVATIONS

STATION/POSITION TIME  TEMP    WIND        PRES
                       AIR SEA DIR/SP/G
                 (UTC) (F)     (DEG/KT/KT) (MB)
THOMAS PT LIGHT  NOT AVBL
BALT KEY BRIDGE  1100   75     110/  8/ 10 1019.7R
COVE POINT       1100   75     140/  9/ 11 1020.2R
LEWISETTA        1100   75 80  220/  3/  5 1019.4R
SOLOMONS ISLAND  1100      80                N/A
PINEY POINT      1100          200/  6/  7   N/A

$$




USA.gov is the U.S. government's official web portal to all federal, state and local government web resources and services.